Location: Cormont
(50.5693°N, 1.7416°E)
Time: 07:30:22
(UTC+00:00)

Cosmos 44 - Pass Details

Date: 21 October 2019
Orbit: 593 x 769 km, 65.1° (Epoch: 21 November)

Event Time Altitude Azimuth Distance (km) Brightness Sun altitude
Rises 19:03:02 0° 206° (SSW) 3,096 6.9 -21.8°
Reaches altitude 10° 19:05:27 10° 203° (SSW) 2,153 6.0 -22.2°
Enters shadow 19:09:44 55° 154° (SSE) 814 3.4 -22.9°
